�N����,����,�~����,�C��,���x,�C��,����,���ϕ���,�ő�u�ԕ���,�ő厞����,���˗�,�I�_���x,�n�����x,�ő啗���N��,DTYPE
"17/10/10","00:10",0.0,19.5,91.7,1014.5,293.0,1.1,1.6,308.8,0.00,18.2,21.2,"00:05:04",1
"17/10/10","00:20",0.0,19.3,91.8,1014.5,297.1,1.0,1.6,310.0,0.00,18.0,21.1,"00:17:44",1
"17/10/10","00:30",0.0,19.2,92.1,1014.5,316.8,1.5,2.1,317.6,0.00,17.9,21.1,"00:28:48",1
"17/10/10","00:40",0.0,19.1,92.7,1014.7,329.1,1.6,2.5,335.9,0.00,17.9,21.2,"00:35:28",1
"17/10/10","00:50",0.0,19.2,92.7,1014.5,326.7,1.5,2.0,324.4,0.00,18.0,21.0,"00:48:00",1
"17/10/10","01:00",0.0,19.1,92.8,1014.5,318.0,1.6,2.6,331.1,0.00,17.9,21.1,"00:57:28",1
"17/10/10","01:10",0.0,19.1,92.9,1014.5,284.6,1.2,1.8,310.2,0.00,18.0,21.1,"01:00:32",1
"17/10/10","01:20",0.0,18.9,92.9,1014.9,302.0,1.1,1.4,278.1,0.00,17.8,20.9,"01:10:16",1
"17/10/10","01:30",0.0,18.7,93.0,1014.7,311.9,1.1,1.3,329.9,0.00,17.6,20.9,"01:20:24",1
"17/10/10","01:40",0.0,18.4,93.0,1014.7,302.7,1.0,1.6,318.6,0.00,17.3,20.9,"01:37:36",1
"17/10/10","01:50",0.0,18.2,93.5,1014.7,312.4,1.2,2.1,326.2,0.00,17.2,20.8,"01:44:56",1
"17/10/10","02:00",0.0,18.2,94.2,1014.7,294.7,1.1,2.0,312.1,0.00,17.3,20.8,"01:55:36",1
"17/10/10","02:10",0.0,18.3,94.3,1014.7,286.0,1.1,1.4,310.7,0.00,17.4,20.8,"02:02:48",1
"17/10/10","02:20",0.0,18.1,94.2,1014.2,297.7,1.0,1.4,312.0,0.00,17.2,20.7,"02:10:32",1
"17/10/10","02:30",0.0,17.9,94.3,1014.5,295.0,1.0,1.4,331.2,0.00,17.0,20.7,"02:29:36",1
"17/10/10","02:40",0.0,17.8,94.8,1014.0,313.2,1.1,1.6,321.1,0.00,17.0,20.6,"02:31:04",1
"17/10/10","02:50",0.0,17.8,95.2,1014.2,313.5,1.5,1.9,318.7,0.00,17.1,20.5,"02:47:20",1
"17/10/10","03:00",0.0,18.0,95.4,1014.0,283.9,1.1,1.7,301.7,0.00,17.3,20.6,"02:56:32",1
"17/10/10","03:10",0.0,18.0,95.4,1013.5,292.7,1.3,1.8,313.1,0.00,17.3,20.5,"03:08:16",1
"17/10/10","03:20",0.0,18.0,95.4,1013.5,293.4,1.0,1.7,307.2,0.00,17.3,20.5,"03:14:16",1
"17/10/10","03:30",0.0,17.9,95.4,1013.8,306.3,1.0,1.4,321.8,0.00,17.2,20.3,"03:25:20",1
"17/10/10","03:40",0.0,17.7,95.3,1013.3,299.4,0.5,1.0,293.5,0.00,17.0,20.4,"03:36:40",1
"17/10/10","03:50",0.0,17.7,95.7,1013.5,304.3,1.0,1.2,319.5,0.00,17.0,20.4,"03:46:48",1
"17/10/10","04:00",0.0,17.9,96.0,1013.5,310.1,1.2,1.7,327.9,0.00,17.3,20.6,"03:56:08",1
"17/10/10","04:10",0.0,18.1,96.0,1013.8,323.8,1.5,1.9,325.9,0.00,17.5,20.4,"04:01:20",1
"17/10/10","04:20",0.0,18.1,96.0,1013.8,296.1,1.0,1.4,322.6,0.00,17.5,20.5,"04:10:08",1
"17/10/10","04:30",0.0,18.2,96.1,1013.5,305.6,1.2,1.6,331.8,0.00,17.6,20.5,"04:22:56",1
"17/10/10","04:40",0.0,18.4,96.1,1013.8,292.7,1.1,1.6,313.3,0.00,17.8,20.3,"04:30:32",1
"17/10/10","04:50",0.0,18.4,96.0,1013.5,288.4,1.0,1.4,306.3,0.00,17.8,20.2,"04:40:08",1
"17/10/10","05:00",0.0,18.5,95.9,1013.5,286.7,1.0,1.2,308.3,0.00,17.9,20.2,"04:50:08",1
"17/10/10","05:10",0.0,18.4,95.8,1013.8,297.4,1.1,1.7,310.3,0.00,17.8,20.3,"05:06:32",1
"17/10/10","05:20",0.0,18.3,95.8,1014.0,317.3,1.5,1.8,311.4,0.00,17.7,20.3,"05:14:40",1
"17/10/10","05:30",0.0,18.2,95.8,1013.5,298.1,1.1,1.3,316.2,0.00,17.6,20.4,"05:20:08",1
"17/10/10","05:40",0.0,18.0,95.9,1013.8,301.8,1.2,1.9,304.5,0.00,17.4,20.3,"05:36:16",1
"17/10/10","05:50",0.0,18.0,95.9,1013.8,290.6,1.1,1.6,308.1,0.00,17.4,20.3,"05:48:48",1
"17/10/10","06:00",0.0,17.9,96.0,1014.0,307.8,1.3,2.2,326.3,0.00,17.3,20.3,"05:56:16",1
"17/10/10","06:10",0.0,17.9,96.0,1013.8,290.4,1.1,1.6,319.5,0.00,17.3,20.3,"06:01:04",1
"17/10/10","06:20",0.0,17.8,96.0,1013.8,290.7,1.0,1.4,317.0,0.00,17.2,20.4,"06:19:36",1
"17/10/10","06:30",0.0,17.9,96.3,1013.5,306.9,1.3,1.8,319.5,0.00,17.3,20.3,"06:26:56",1
"17/10/10","06:40",0.0,18.2,96.4,1013.5,296.9,1.0,1.6,326.6,0.01,17.7,20.1,"06:37:20",1
"17/10/10","06:50",0.0,18.7,96.4,1013.5,297.7,0.8,1.3,298.7,0.01,18.2,20.2,"06:42:48",1
"17/10/10","07:00",0.0,18.9,96.0,1013.5,311.9,0.8,1.3,311.6,0.02,18.3,20.5,"06:50:56",1
"17/10/10","07:10",0.0,19.7,94.6,1013.5,311.2,1.2,1.9,331.0,0.04,18.8,20.3,"07:01:28",1
"17/10/10","07:20",0.0,20.6,90.9,1014.0,332.1,0.7,1.3,313.4,0.07,19.1,20.4,"07:10:40",1
"17/10/10","07:30",0.0,21.1,88.0,1013.8,259.4,0.3,1.0,329.8,0.07,19.1,20.4,"07:21:04",1
"17/10/10","07:40",0.0,21.3,87.0,1013.8,286.6,0.5,1.0,333.4,0.08,19.1,20.3,"07:32:08",1
"17/10/10","07:50",0.0,21.7,85.6,1014.0,294.7,0.6,1.3,237.3,0.11,19.2,20.6,"07:49:44",1
"17/10/10","08:00",0.0,22.4,84.7,1014.2,278.7,0.5,1.2,227.2,0.13,19.7,20.5,"07:50:40",1
"17/10/10","08:10",0.0,22.4,83.1,1014.5,255.7,0.6,1.1,331.0,0.15,19.4,20.6,"08:02:16",1
"17/10/10","08:20",0.0,23.3,82.2,1014.0,181.3,0.3,1.1,21.6,0.18,20.1,20.7,"08:15:44",1
"17/10/10","08:30",0.0,23.2,80.9,1014.0,229.7,0.6,1.4,138.9,0.21,19.8,20.7,"08:29:36",1
"17/10/10","08:40",0.0,23.9,78.7,1013.8,166.5,0.3,1.0,165.4,0.22,20.0,20.8,"08:38:08",1
"17/10/10","08:50",0.0,24.3,79.2,1013.5,155.1,0.3,1.2,232.2,0.25,20.5,20.9,"08:44:24",1
"17/10/10","09:00",0.0,23.9,79.4,1013.3,179.1,0.8,2.2,216.3,0.26,20.2,21.0,"08:55:04",1
"17/10/10","09:10",0.0,24.2,78.2,1013.3,206.6,0.7,1.6,187.9,0.29,20.2,21.0,"09:04:00",1
"17/10/10","09:20",0.0,24.6,77.9,1013.0,209.3,1.1,2.5,194.0,0.31,20.5,21.2,"09:19:52",1
"17/10/10","09:30",0.0,24.7,77.1,1012.6,202.0,1.1,2.4,196.5,0.33,20.5,21.3,"09:21:12",1
"17/10/10","09:40",0.0,25.2,76.2,1012.1,185.7,1.1,2.6,203.8,0.35,20.8,21.3,"09:35:28",1
"17/10/10","09:50",0.0,25.4,75.2,1012.3,160.9,1.2,3.1,211.8,0.36,20.7,21.7,"09:44:00",1
"17/10/10","10:00",0.0,25.9,73.1,1012.6,170.9,0.7,2.2,210.7,0.38,20.8,21.7,"09:55:36",1
"17/10/10","10:10",0.0,26.2,73.0,1012.8,167.5,1.2,2.9,214.0,0.40,21.0,21.8,"10:03:44",1
"17/10/10","10:20",0.0,26.3,72.2,1012.3,198.7,1.2,2.9,215.3,0.42,20.9,21.8,"10:19:28",1
"17/10/10","10:30",0.0,26.6,70.0,1012.8,167.8,0.8,2.6,211.6,0.43,20.7,22.1,"10:28:24",1
"17/10/10","10:40",0.0,26.7,69.7,1012.8,202.2,1.7,3.1,208.8,0.43,20.7,22.1,"10:33:04",1
"17/10/10","10:50",0.0,27.4,65.6,1012.3,220.5,1.2,2.7,197.8,0.45,20.4,22.5,"10:40:24",1
"17/10/10","11:00",0.0,28.1,62.3,1012.6,252.9,1.2,3.3,330.6,0.48,20.3,22.4,"10:52:00",1
"17/10/10","11:10",0.0,27.9,62.0,1012.6,231.6,1.7,4.4,223.9,0.49,20.0,22.8,"11:09:52",1
"17/10/10","11:20",0.0,27.7,63.2,1012.3,230.6,2.1,4.8,233.2,0.49,20.1,22.9,"11:14:40",1
"17/10/10","11:30",0.0,27.8,63.7,1011.9,221.0,2.5,4.3,209.2,0.49,20.3,22.8,"11:26:40",1
"17/10/10","11:40",0.0,28.4,62.2,1011.9,255.4,1.3,3.1,251.0,0.52,20.5,23.2,"11:34:08",1
"17/10/10","11:50",0.0,28.8,62.4,1011.9,244.2,1.5,3.9,232.4,0.52,20.9,23.3,"11:47:12",1
"17/10/10","12:00",0.0,28.8,60.9,1011.6,230.4,1.7,4.5,190.0,0.51,20.5,23.6,"11:59:12",1
"17/10/10","12:10",0.0,28.9,58.7,1011.4,245.1,1.1,2.6,212.5,0.54,20.0,23.7,"12:01:12",1
"17/10/10","12:20",0.0,28.4,61.5,1011.6,241.2,1.2,4.8,182.2,0.35,20.3,23.7,"12:10:56",1
"17/10/10","12:30",0.0,27.8,61.8,1011.2,243.2,1.5,3.7,224.2,0.16,19.8,23.9,"12:24:56",1
"17/10/10","12:40",0.0,28.7,59.1,1010.9,294.3,0.8,2.1,343.0,0.32,20.0,23.8,"12:32:56",1
"17/10/10","12:50",0.0,28.0,58.8,1010.7,312.9,0.7,2.7,316.3,0.14,19.2,23.9,"12:42:32",1
"17/10/10","13:00",0.0,29.0,59.7,1010.2,310.0,0.8,2.6,335.2,0.34,20.4,23.9,"12:52:56",1
"17/10/10","13:10",0.0,29.8,58.3,1010.4,268.8,1.0,2.7,222.0,0.48,20.8,24.1,"13:06:16",1
"17/10/10","13:20",0.0,29.8,55.1,1010.9,229.9,1.3,2.9,188.2,0.50,19.9,24.4,"13:10:08",1
"17/10/10","13:30",0.0,28.5,57.8,1010.4,306.4,1.1,3.2,342.5,0.18,19.4,24.3,"13:28:08",1
"17/10/10","13:40",0.0,29.9,54.7,1010.4,340.9,1.2,3.9,338.7,0.43,19.8,24.3,"13:31:36",1
"17/10/10","13:50",0.0,30.2,53.1,1010.4,350.2,0.7,1.8,321.1,0.41,19.6,24.3,"13:46:32",1
"17/10/10","14:00",0.0,29.0,55.9,1010.7,272.4,0.7,2.4,245.4,0.20,19.3,24.4,"13:52:56",1
"17/10/10","14:10",0.0,29.8,55.1,1010.4,312.4,0.8,2.1,307.2,0.31,19.9,24.4,"14:00:48",1
"17/10/10","14:20",0.0,30.1,53.5,1010.4,3.6,0.8,2.0,349.2,0.35,19.7,24.6,"14:17:28",1
"17/10/10","14:30",0.0,28.8,58.1,1010.7,347.9,1.0,2.2,337.4,0.17,19.8,24.5,"14:21:04",1
"17/10/10","14:40",0.0,28.9,56.9,1010.2,350.6,1.1,2.5,355.1,0.19,19.5,24.6,"14:36:40",1
"17/10/10","14:50",0.0,29.2,57.1,1009.7,296.6,0.6,1.6,341.2,0.20,19.9,24.5,"14:40:32",1
"17/10/10","15:00",0.0,28.2,61.6,1009.7,320.6,0.5,1.4,353.3,0.09,20.2,24.7,"14:51:44",1
"17/10/10","15:10",0.0,29.0,58.4,1009.5,326.1,0.7,1.7,355.5,0.20,20.1,24.4,"15:01:36",1
"17/10/10","15:20",0.0,28.9,57.6,1009.7,249.7,0.7,2.1,228.7,0.17,19.7,24.3,"15:19:44",1
"17/10/10","15:30",0.0,29.2,57.0,1009.5,250.3,0.6,1.3,225.9,0.19,19.8,24.6,"15:22:24",1
"17/10/10","15:40",0.0,29.4,57.0,1009.7,291.7,0.3,1.6,343.6,0.16,20.0,24.2,"15:39:28",1
"17/10/10","15:50",0.0,29.1,57.5,1010.0,280.7,0.6,1.6,334.9,0.10,19.9,24.5,"15:42:48",1
"17/10/10","16:00",0.0,28.6,60.0,1009.3,305.0,0.5,1.7,343.7,0.05,20.1,24.5,"15:51:20",1
"17/10/10","16:10",0.0,28.1,62.4,1009.0,293.4,0.5,1.3,305.1,0.05,20.3,24.2,"16:01:36",1
"17/10/10","16:20",0.0,27.5,65.4,1009.0,300.2,0.6,1.2,331.9,0.02,20.5,24.2,"16:14:24",1
"17/10/10","16:30",0.0,27.2,67.6,1008.8,294.2,0.6,1.7,325.8,0.03,20.7,24.3,"16:29:44",1
"17/10/10","16:40",0.0,26.8,67.9,1009.0,331.1,1.5,2.7,320.6,0.03,20.4,24.2,"16:39:52",1
"17/10/10","16:50",0.0,26.3,70.4,1009.3,310.8,1.3,3.2,331.7,0.01,20.5,23.9,"16:42:56",1
"17/10/10","17:00",0.0,25.7,71.4,1009.3,305.3,0.8,1.8,334.9,0.01,20.2,23.8,"16:59:20",1
"17/10/10","17:10",0.0,25.3,72.7,1009.5,317.9,0.8,1.8,334.3,0.00,20.1,24.0,"17:05:28",1
"17/10/10","17:20",0.0,25.1,73.3,1009.7,316.0,0.8,2.4,351.2,0.00,20.0,23.8,"17:19:12",1
"17/10/10","17:30",0.0,25.0,74.3,1010.0,346.4,1.1,1.9,333.6,0.00,20.1,23.8,"17:21:20",1
"17/10/10","17:40",0.0,24.5,75.9,1010.2,322.3,1.0,1.4,337.7,0.00,20.0,23.8,"17:36:08",1
"17/10/10","17:50",0.0,23.8,78.4,1010.4,320.2,0.8,1.4,330.8,0.00,19.9,23.4,"17:48:24",1
"17/10/10","18:00",0.0,23.4,80.3,1010.4,322.4,1.0,1.6,326.1,0.00,19.9,23.6,"17:54:56",1
"17/10/10","18:10",0.0,22.9,82.0,1010.7,307.2,1.0,1.7,317.9,0.00,19.7,23.2,"18:09:36",1
"17/10/10","18:20",0.0,22.5,83.7,1010.7,310.0,1.0,1.7,311.8,0.00,19.6,23.2,"18:10:56",1
"17/10/10","18:30",0.0,22.1,85.0,1010.9,294.1,0.8,1.1,296.6,0.00,19.5,23.2,"18:22:40",1
"17/10/10","18:40",0.0,21.9,86.3,1010.9,299.7,1.2,1.8,312.6,0.00,19.5,23.1,"18:34:00",1
"17/10/10","18:50",0.0,21.8,86.9,1010.7,323.6,1.2,1.6,332.8,0.00,19.6,22.9,"18:49:28",1
"17/10/10","19:00",0.0,21.7,87.1,1011.4,315.7,1.5,2.4,314.0,0.00,19.5,22.9,"18:56:00",1
"17/10/10","19:10",0.0,21.6,87.8,1011.4,300.7,1.2,2.0,307.2,0.00,19.5,22.8,"19:07:44",1
"17/10/10","19:20",0.0,21.4,88.1,1011.4,298.1,1.0,1.3,294.5,0.00,19.4,22.8,"19:11:04",1
"17/10/10","19:30",0.0,21.2,88.9,1011.4,286.0,0.8,1.6,274.1,0.00,19.3,22.8,"19:28:32",1
"17/10/10","19:40",0.0,21.1,88.9,1011.4,298.6,0.7,1.1,318.4,0.00,19.2,22.8,"19:38:00",1
"17/10/10","19:50",0.0,21.0,89.5,1011.6,318.4,1.2,2.6,318.6,0.00,19.2,22.5,"19:47:28",1
"17/10/10","20:00",0.0,21.1,89.5,1011.4,314.6,1.5,2.6,312.5,0.00,19.3,22.4,"19:51:28",1
"17/10/10","20:10",0.0,21.1,89.3,1011.6,288.0,0.8,1.3,317.5,0.00,19.3,22.3,"20:06:24",1
"17/10/10","20:20",0.0,20.9,89.6,1011.6,306.7,1.2,2.2,323.7,0.00,19.2,22.5,"20:17:12",1
"17/10/10","20:30",0.0,20.7,89.6,1011.9,310.1,0.7,1.1,309.6,0.00,19.0,22.2,"20:22:08",1
"17/10/10","20:40",0.0,20.5,90.3,1011.9,300.2,0.6,1.1,308.7,0.00,18.9,22.2,"20:38:00",1
"17/10/10","20:50",0.0,20.4,90.7,1011.9,317.8,0.7,1.3,332.5,0.00,18.9,22.3,"20:43:20",1
"17/10/10","21:00",0.0,20.2,90.6,1012.1,320.3,0.6,1.2,337.4,0.00,18.7,22.0,"20:51:20",1
"17/10/10","21:10",0.0,19.9,91.1,1011.9,327.2,0.8,1.4,332.0,0.00,18.4,22.0,"21:00:02",1
"17/10/10","21:20",0.0,20.0,91.4,1012.1,337.1,1.0,1.8,334.1,0.00,18.6,22.0,"21:17:20",1
"17/10/10","21:30",0.0,20.0,91.1,1011.9,330.3,0.7,2.1,346.9,0.00,18.5,21.9,"21:22:24",1
"17/10/10","21:40",0.0,19.7,91.3,1011.9,314.5,0.6,1.4,322.2,0.00,18.3,22.0,"21:36:40",1
"17/10/10","21:50",0.0,19.4,91.8,1012.6,297.1,0.8,1.6,333.4,0.00,18.1,21.9,"21:47:12",1
"17/10/10","22:00",0.0,19.7,92.3,1012.3,340.5,1.2,2.1,332.3,0.00,18.5,22.0,"21:56:40",1
"17/10/10","22:10",0.0,20.2,92.0,1012.3,333.6,1.8,3.1,338.9,0.00,18.9,21.7,"22:04:08",1
"17/10/10","22:20",0.0,20.1,91.3,1012.6,324.8,1.5,2.1,342.1,0.00,18.7,21.6,"22:11:28",1
"17/10/10","22:30",0.0,20.1,91.0,1012.6,318.1,1.0,2.1,334.6,0.00,18.6,21.8,"22:20:40",1
"17/10/10","22:40",0.0,20.0,90.5,1012.3,346.2,1.0,2.0,331.2,0.00,18.4,21.7,"22:37:28",1
"17/10/10","22:50",0.0,19.8,90.2,1012.6,338.7,1.2,2.1,326.0,0.00,18.2,21.6,"22:45:04",1
"17/10/10","23:00",0.0,19.7,90.3,1012.3,338.6,1.2,2.1,341.7,0.00,18.1,21.4,"22:57:12",1
"17/10/10","23:10",0.0,19.6,90.5,1012.6,334.5,1.1,1.9,337.2,0.00,18.0,21.6,"23:08:48",1
"17/10/10","23:20",0.0,19.5,90.8,1012.3,316.4,0.8,1.7,332.4,0.00,18.0,21.4,"23:18:00",1
"17/10/10","23:30",0.0,19.3,90.7,1012.3,293.7,0.6,1.1,320.7,0.00,17.8,21.7,"23:27:28",1
"17/10/10","23:40",0.0,19.1,91.6,1012.1,305.3,1.1,1.7,322.9,0.00,17.7,21.5,"23:36:00",1
"17/10/10","23:50",0.0,19.2,92.4,1012.3,324.1,1.0,1.3,320.3,0.00,18.0,21.4,"23:40:24",1
"17/10/10","24:00",0.0,19.4,92.8,1012.1,330.8,0.6,1.1,328.9,0.00,18.2,21.3,"23:57:12",1
